Location: Owl River
(54.8872°N, 111.8867°W)
Time: 14:59:02
(UTC+00:00)

BlueWalker 3 - Pass Details

Date: 23 April 2024
Orbit: 481 x 494 km, 53.2° (Epoch: 26 May)

Event Time Altitude Azimuth Distance (km) Brightness Sun altitude
Rises 06:07:38 0° 276° (W) 2,581 5.9 -20.4°
Reaches altitude 10° 06:09:50 10° 273° (W) 1,699 4.9 -20.5°
Enters shadow 06:12:59 50° 235° (SW) 642 2.3 -20.7°
